,,PressureMeas_1m,,PRMeasQMR101_1,,RHStat155_1m_1,,SRMeasQMS101R_1m,,TAStat155_1m_1,,GenWind_1,,GenWind_1,
2018-05-26, 00:00:06,VALID,916.869,VALID,0.0,VALID,98.845,VALID,0.004,VALID,20.788,INVALID,360.0,VALID,0.0,
2018-05-26, 00:01:06,VALID,916.862,VALID,0.0,VALID,98.827,VALID,-0.02,VALID,20.757,VALID,124.0,VALID,0.329,
2018-05-26, 00:02:06,VALID,916.858,VALID,0.0,VALID,98.828,VALID,-0.016,VALID,20.731,INVALID,360.0,VALID,0.119,
2018-05-26, 00:03:06,VALID,916.855,VALID,0.0,VALID,98.84,VALID,-0.008,VALID,20.728,VALID,94.0,VALID,0.421,
2018-05-26, 00:04:06,VALID,916.865,VALID,0.0,VALID,98.82,VALID,-0.023,VALID,20.698,VALID,102.0,VALID,1.187,
2018-05-26, 00:05:06,VALID,916.87,VALID,0.0,VALID,98.85,VALID,-0.044,VALID,20.689,VALID,99.0,VALID,1.13,
2018-05-26, 00:06:06,VALID,916.863,VALID,0.0,VALID,98.868,VALID,-0.03,VALID,20.684,VALID,103.0,VALID,0.933,
2018-05-26, 00:07:06,VALID,916.863,VALID,0.0,VALID,98.887,VALID,-0.023,VALID,20.686,VALID,121.0,VALID,0.669,
2018-05-26, 00:08:06,VALID,916.861,VALID,0.0,VALID,98.9,VALID,-0.021,VALID,20.705,VALID,119.0,VALID,0.601,
2018-05-26, 00:09:06,VALID,916.85,VALID,0.0,VALID,98.888,VALID,-0.026,VALID,20.711,VALID,110.0,VALID,0.321,
2018-05-26, 00:10:06,VALID,916.855,VALID,0.0,VALID,98.887,VALID,-0.028,VALID,20.715,INVALID,360.0,VALID,0.001,
2018-05-26, 00:11:06,VALID,916.851,VALID,0.0,VALID,98.901,VALID,-0.029,VALID,20.716,INVALID,360.0,VALID,0.0,
2018-05-26, 00:12:06,VALID,916.849,VALID,0.0,VALID,98.912,VALID,-0.019,VALID,20.705,INVALID,360.0,VALID,0.0,
2018-05-26, 00:13:06,VALID,916.84,VALID,0.0,VALID,98.912,VALID,-0.024,VALID,20.705,INVALID,360.0,VALID,0.0,
2018-05-26, 00:14:06,VALID,916.845,VALID,0.0,VALID,98.91,VALID,-0.027,VALID,20.71,INVALID,360.0,VALID,0.259,
2018-05-26, 00:15:06,VALID,916.844,VALID,0.0,VALID,98.933,VALID,-0.015,VALID,20.718,VALID,110.0,VALID,0.318,
2018-05-26, 00:16:06,VALID,916.827,VALID,0.0,VALID,98.926,VALID,-0.005,VALID,20.721,VALID,117.0,VALID,0.25,
2018-05-26, 00:17:06,VALID,916.821,VALID,0.0,VALID,98.945,VALID,-0.017,VALID,20.721,VALID,118.0,VALID,0.307,
2018-05-26, 00:18:06,VALID,916.8,VALID,0.0,VALID,98.946,VALID,0.001,VALID,20.737,VALID,121.0,VALID,0.389,
2018-05-26, 00:19:06,VALID,916.777,VALID,0.0,VALID,98.955,VALID,0.05,VALID,20.77,INVALID,360.0,VALID,0.189,
2018-05-26, 00:20:06,VALID,916.768,VALID,0.0,VALID,98.993,VALID,0.062,VALID,20.846,INVALID,360.0,VALID,0.0,
2018-05-26, 00:21:06,VALID,916.75,VALID,0.0,VALID,98.987,VALID,0.061,VALID,20.874,INVALID,360.0,VALID,0.0,
2018-05-26, 00:22:06,VALID,916.737,VALID,0.0,VALID,98.967,VALID,0.055,VALID,20.862,INVALID,360.0,VALID,0.0,
2018-05-26, 00:23:06,VALID,916.724,VALID,0.0,VALID,98.967,VALID,0.056,VALID,20.85,INVALID,360.0,VALID,0.0,
2018-05-26, 00:24:06,VALID,916.703,VALID,0.0,VALID,98.968,VALID,0.066,VALID,20.81,INVALID,360.0,VALID,0.0,
2018-05-26, 00:25:06,VALID,916.714,VALID,0.0,VALID,98.952,VALID,0.049,VALID,20.776,INVALID,360.0,VALID,0.0,
2018-05-26, 00:26:06,VALID,916.697,VALID,0.0,VALID,98.967,VALID,0.05,VALID,20.762,INVALID,360.0,VALID,0.0,
2018-05-26, 00:27:06,VALID,916.682,VALID,0.0,VALID,98.943,VALID,0.057,VALID,20.728,INVALID,360.0,VALID,0.0,
2018-05-26, 00:28:06,VALID,916.671,VALID,0.0,VALID,98.951,VALID,0.055,VALID,20.713,INVALID,360.0,VALID,0.0,
2018-05-26, 00:29:06,VALID,916.651,VALID,0.0,VALID,98.962,VALID,0.055,VALID,20.718,INVALID,360.0,VALID,0.0,
2018-05-26, 00:30:06,VALID,916.638,VALID,0.0,VALID,98.982,VALID,0.051,VALID,20.729,INVALID,360.0,VALID,0.0,
2018-05-26, 00:31:06,VALID,916.622,VALID,0.0,VALID,98.985,VALID,0.058,VALID,20.743,INVALID,360.0,VALID,0.0,
2018-05-26, 00:32:06,VALID,916.61,VALID,0.0,VALID,98.99,VALID,0.064,VALID,20.751,INVALID,360.0,VALID,0.0,
2018-05-26, 00:33:06,VALID,916.587,VALID,0.0,VALID,99.005,VALID,0.041,VALID,20.761,INVALID,360.0,VALID,0.0,
2018-05-26, 00:34:06,VALID,916.574,VALID,0.0,VALID,99.006,VALID,-0.001,VALID,20.781,INVALID,360.0,VALID,0.0,
2018-05-26, 00:35:06,VALID,916.554,VALID,0.0,VALID,99.014,VALID,-0.003,VALID,20.815,INVALID,360.0,VALID,0.0,
2018-05-26, 00:36:06,VALID,916.537,VALID,0.0,VALID,99.039,VALID,0.009,VALID,20.846,INVALID,360.0,VALID,0.0,
2018-05-26, 00:37:06,VALID,916.513,VALID,0.0,VALID,99.038,VALID,0.02,VALID,20.87,INVALID,360.0,VALID,0.0,
2018-05-26, 00:38:06,VALID,916.489,VALID,0.0,VALID,99.036,VALID,0.022,VALID,20.867,INVALID,360.0,VALID,0.0,
2018-05-26, 00:39:06,VALID,916.466,VALID,0.0,VALID,99.003,VALID,0.007,VALID,20.844,INVALID,360.0,VALID,0.0,
2018-05-26, 00:40:06,VALID,916.44,VALID,0.0,VALID,99.012,VALID,-0.001,VALID,20.833,INVALID,360.0,VALID,0.0,
2018-05-26, 00:41:06,VALID,916.419,VALID,0.0,VALID,99.018,VALID,0.02,VALID,20.835,INVALID,360.0,VALID,0.0,
2018-05-26, 00:42:06,VALID,916.39,VALID,0.0,VALID,98.994,VALID,0.012,VALID,20.819,INVALID,360.0,VALID,0.0,
2018-05-26, 00:43:06,VALID,916.38,VALID,0.0,VALID,99.0,VALID,0.027,VALID,20.798,INVALID,360.0,VALID,0.124,
2018-05-26, 00:44:06,VALID,916.356,VALID,0.0,VALID,98.99,VALID,0.017,VALID,20.79,VALID,151.0,VALID,0.231,
2018-05-26, 00:45:06,VALID,916.348,VALID,0.0,VALID,98.999,VALID,0.014,VALID,20.785,VALID,157.0,VALID,0.436,
2018-05-26, 00:46:06,VALID,916.327,VALID,0.0,VALID,98.978,VALID,0.018,VALID,20.778,VALID,161.0,VALID,0.12,
2018-05-26, 00:47:06,VALID,916.301,VALID,0.0,VALID,98.994,VALID,0.017,VALID,20.776,INVALID,360.0,VALID,0.113,
2018-05-26, 00:48:06,VALID,916.276,VALID,0.0,VALID,98.989,VALID,0.007,VALID,20.782,VALID,148.0,VALID,0.132,
2018-05-26, 00:49:06,VALID,916.259,VALID,0.0,VALID,98.987,VALID,0.017,VALID,20.804,INVALID,360.0,VALID,0.079,
2018-05-26, 00:50:06,VALID,916.234,VALID,0.0,VALID,99.003,VALID,0.034,VALID,20.795,VALID,124.0,VALID,0.273,
2018-05-26, 00:51:06,VALID,916.213,VALID,0.0,VALID,98.954,VALID,0.033,VALID,20.75,VALID,112.0,VALID,0.79,
2018-05-26, 00:52:06,VALID,916.188,VALID,0.0,VALID,98.963,VALID,0.04,VALID,20.724,VALID,107.0,VALID,0.788,
2018-05-26, 00:53:06,VALID,916.165,VALID,0.0,VALID,98.972,VALID,0.037,VALID,20.723,VALID,95.0,VALID,0.654,
2018-05-26, 00:54:06,VALID,916.149,VALID,0.0,VALID,98.972,VALID,0.036,VALID,20.703,VALID,110.0,VALID,0.783,
2018-05-26, 00:55:06,VALID,916.132,VALID,0.0,VALID,98.956,VALID,0.024,VALID,20.707,VALID,113.0,VALID,1.013,
2018-05-26, 00:56:06,VALID,916.101,VALID,0.0,VALID,98.948,VALID,0.038,VALID,20.708,VALID,117.0,VALID,1.064,
2018-05-26, 00:57:06,VALID,916.067,VALID,0.0,VALID,98.96,VALID,0.038,VALID,20.702,VALID,116.0,VALID,1.031,
2018-05-26, 00:58:06,VALID,916.062,VALID,0.0,VALID,98.933,VALID,0.033,VALID,20.697,VALID,117.0,VALID,1.237,
2018-05-26, 00:59:06,VALID,916.041,VALID,0.0,VALID,98.913,VALID,0.019,VALID,20.656,VALID,114.0,VALID,1.302,
2018-05-26, 01:00:06,VALID,916.016,VALID,0.0,VALID,98.888,VALID,0.014,VALID,20.632,VALID,117.0,VALID,1.106,
2018-05-26, 01:01:06,VALID,915.987,VALID,0.0,VALID,98.905,VALID,0.045,VALID,20.622,VALID,116.0,VALID,1.199,
2018-05-26, 01:02:06,VALID,915.969,VALID,0.0,VALID,98.884,VALID,0.028,VALID,20.623,VALID,117.0,VALID,1.291,
2018-05-26, 01:03:06,VALID,915.94,VALID,0.0,VALID,98.881,VALID,0.028,VALID,20.615,VALID,117.0,VALID,1.157,
2018-05-26, 01:04:06,VALID,915.912,VALID,0.0,VALID,98.878,VALID,0.057,VALID,20.623,VALID,124.0,VALID,1.075,
2018-05-26, 01:05:06,VALID,915.878,VALID,0.0,VALID,98.895,VALID,0.037,VALID,20.658,VALID,129.0,VALID,0.584,
2018-05-26, 01:06:06,VALID,915.857,VALID,0.0,VALID,98.887,VALID,0.044,VALID,20.658,VALID,117.0,VALID,0.698,
2018-05-26, 01:07:06,VALID,915.827,VALID,0.0,VALID,98.895,VALID,0.045,VALID,20.641,VALID,122.0,VALID,0.574,
2018-05-26, 01:08:06,VALID,915.814,VALID,0.0,VALID,98.886,VALID,0.069,VALID,20.626,VALID,135.0,VALID,0.41,
2018-05-26, 01:09:06,VALID,915.774,VALID,0.0,VALID,98.896,VALID,0.07,VALID,20.639,INVALID,360.0,VALID,0.141,
2018-05-26, 01:10:06,VALID,915.749,VALID,0.0,VALID,98.914,VALID,0.062,VALID,20.661,INVALID,360.0,VALID,0.059,
2018-05-26, 01:11:06,VALID,915.708,VALID,0.0,VALID,98.951,VALID,0.047,VALID,20.686,INVALID,360.0,VALID,0.044,
2018-05-26, 01:12:06,VALID,915.692,VALID,0.0,VALID,98.928,VALID,0.067,VALID,20.673,INVALID,360.0,VALID,0.201,
2018-05-26, 01:13:06,VALID,915.684,VALID,0.0,VALID,98.915,VALID,0.056,VALID,20.644,INVALID,360.0,VALID,0.132,
2018-05-26, 01:14:06,VALID,915.669,VALID,0.0,VALID,98.898,VALID,0.069,VALID,20.596,VALID,133.0,VALID,0.416,
2018-05-26, 01:15:06,VALID,915.664,VALID,0.0,VALID,98.886,VALID,0.063,VALID,20.549,VALID,112.0,VALID,0.913,
2018-05-26, 01:16:06,VALID,915.654,VALID,0.0,VALID,98.924,VALID,0.066,VALID,20.557,VALID,110.0,VALID,0.841,
2018-05-26, 01:17:06,VALID,915.647,VALID,0.0,VALID,98.932,VALID,0.065,VALID,20.563,VALID,116.0,VALID,0.693,
2018-05-26, 01:18:06,VALID,915.635,VALID,0.0,VALID,98.948,VALID,0.033,VALID,20.556,VALID,106.0,VALID,0.955,
2018-05-26, 01:19:06,VALID,915.613,VALID,0.0,VALID,98.932,VALID,-0.005,VALID,20.509,VALID,100.0,VALID,0.923,
2018-05-26, 01:20:06,VALID,915.606,VALID,0.0,VALID,98.926,VALID,-0.018,VALID,20.481,VALID,94.0,VALID,0.882,
2018-05-26, 01:21:06,VALID,915.588,VALID,0.0,VALID,98.929,VALID,-0.025,VALID,20.469,VALID,92.0,VALID,0.841,
2018-05-26, 01:22:06,VALID,915.592,VALID,0.0,VALID,98.962,VALID,-0.022,VALID,20.457,VALID,88.0,VALID,0.952,
2018-05-26, 01:23:06,VALID,915.583,VALID,0.0,VALID,98.951,VALID,-0.002,VALID,20.443,VALID,75.0,VALID,0.863,
2018-05-26, 01:24:06,VALID,915.596,VALID,0.0,VALID,98.969,VALID,0.015,VALID,20.418,VALID,72.0,VALID,0.752,
2018-05-26, 01:25:06,VALID,915.596,VALID,0.0,VALID,98.952,VALID,0.008,VALID,20.408,VALID,74.0,VALID,0.764,
2018-05-26, 01:26:06,VALID,915.596,VALID,0.0,VALID,98.965,VALID,-0.001,VALID,20.401,VALID,81.0,VALID,0.887,
2018-05-26, 01:27:06,VALID,915.598,VALID,0.0,VALID,98.971,VALID,-0.011,VALID,20.392,VALID,94.0,VALID,1.004,
2018-05-26, 01:28:06,VALID,915.603,VALID,0.0,VALID,98.993,VALID,-0.019,VALID,20.4,VALID,91.0,VALID,1.038,
2018-05-26, 01:29:06,VALID,915.599,VALID,0.0,VALID,99.0,VALID,-0.02,VALID,20.424,VALID,90.0,VALID,1.063,
2018-05-26, 01:30:06,VALID,915.601,VALID,0.0,VALID,98.998,VALID,-0.008,VALID,20.42,VALID,89.0,VALID,1.062,
2018-05-26, 01:31:06,VALID,915.613,VALID,0.0,VALID,98.995,VALID,0.012,VALID,20.394,VALID,88.0,VALID,1.048,
2018-05-26, 01:32:06,VALID,915.615,VALID,0.0,VALID,98.979,VALID,0.006,VALID,20.357,VALID,86.0,VALID,1.005,
2018-05-26, 01:33:06,VALID,915.605,VALID,0.0,VALID,98.986,VALID,0.0,VALID,20.335,VALID,88.0,VALID,0.847,
2018-05-26, 01:34:06,VALID,915.61,VALID,0.0,VALID,98.958,VALID,-0.014,VALID,20.305,VALID,92.0,VALID,0.567,
2018-05-26, 01:35:06,VALID,915.607,VALID,0.0,VALID,98.965,VALID,-0.018,VALID,20.287,VALID,101.0,VALID,0.882,
2018-05-26, 01:36:06,VALID,915.621,VALID,0.0,VALID,99.009,VALID,-0.031,VALID,20.354,VALID,105.0,VALID,0.985,
2018-05-26, 01:37:06,VALID,915.613,VALID,0.0,VALID,99.07,VALID,-0.029,VALID,20.45,VALID,113.0,VALID,0.947,
2018-05-26, 01:38:06,VALID,915.615,VALID,0.0,VALID,99.046,VALID,-0.023,VALID,20.445,VALID,118.0,VALID,1.041,
2018-05-26, 01:39:06,VALID,915.612,VALID,0.0,VALID,99.028,VALID,-0.028,VALID,20.417,VALID,123.0,VALID,0.742,
2018-05-26, 01:40:06,VALID,915.62,VALID,0.0,VALID,99.016,VALID,-0.015,VALID,20.416,VALID,121.0,VALID,0.885,
2018-05-26, 01:41:06,VALID,915.629,VALID,0.0,VALID,99.022,VALID,-0.017,VALID,20.428,VALID,117.0,VALID,0.787,
2018-05-26, 01:42:06,VALID,915.633,VALID,0.0,VALID,99.033,VALID,-0.02,VALID,20.464,VALID,125.0,VALID,0.485,
2018-05-26, 01:43:06,VALID,915.636,VALID,0.0,VALID,99.059,VALID,-0.006,VALID,20.484,VALID,129.0,VALID,0.5,
2018-05-26, 01:44:06,VALID,915.64,VALID,0.0,VALID,99.066,VALID,-0.01,VALID,20.548,INVALID,360.0,VALID,0.053,
2018-05-26, 01:45:06,VALID,915.655,VALID,0.0,VALID,99.083,VALID,-0.032,VALID,20.602,INVALID,360.0,VALID,0.0,
2018-05-26, 01:46:06,VALID,915.659,VALID,0.0,VALID,99.062,VALID,-0.023,VALID,20.608,INVALID,360.0,VALID,0.0,
2018-05-26, 01:47:06,VALID,915.657,VALID,0.0,VALID,99.08,VALID,-0.027,VALID,20.614,INVALID,360.0,VALID,0.0,
2018-05-26, 01:48:06,VALID,915.667,VALID,0.0,VALID,99.04,VALID,0.002,VALID,20.583,INVALID,360.0,VALID,0.032,
2018-05-26, 01:49:06,VALID,915.679,VALID,0.0,VALID,99.049,VALID,0.017,VALID,20.552,VALID,173.0,VALID,0.099,
2018-05-26, 01:50:06,VALID,915.669,VALID,0.0,VALID,99.015,VALID,0.018,VALID,20.529,INVALID,360.0,VALID,0.089,
2018-05-26, 01:51:06,VALID,915.671,VALID,0.0,VALID,99.023,VALID,0.01,VALID,20.503,INVALID,360.0,VALID,0.048,
2018-05-26, 01:52:06,VALID,915.679,VALID,0.0,VALID,99.016,VALID,0.011,VALID,20.5,VALID,106.0,VALID,0.692,
2018-05-26, 01:53:06,VALID,915.666,VALID,0.0,VALID,99.02,VALID,0.009,VALID,20.525,VALID,122.0,VALID,0.916,
2018-05-26, 01:54:06,VALID,915.656,VALID,0.0,VALID,99.072,VALID,0.022,VALID,20.588,VALID,129.0,VALID,0.595,
2018-05-26, 01:55:06,VALID,915.654,VALID,0.0,VALID,99.055,VALID,0.021,VALID,20.617,VALID,126.0,VALID,0.898,
2018-05-26, 01:56:06,VALID,915.65,VALID,0.0,VALID,99.055,VALID,0.022,VALID,20.626,VALID,129.0,VALID,0.902,
2018-05-26, 01:57:06,VALID,915.651,VALID,0.0,VALID,99.042,VALID,0.03,VALID,20.629,VALID,124.0,VALID,0.884,
2018-05-26, 01:58:06,VALID,915.648,VALID,0.0,VALID,99.027,VALID,0.024,VALID,20.633,VALID,123.0,VALID,1.149,
2018-05-26, 01:59:06,VALID,915.663,VALID,0.0,VALID,99.035,VALID,0.013,VALID,20.626,VALID,117.0,VALID,1.716,
2018-05-26, 02:00:06,VALID,915.651,VALID,0.0,VALID,98.994,VALID,0.014,VALID,20.601,VALID,109.0,VALID,1.908,
2018-05-26, 02:01:06,VALID,915.616,VALID,0.0,VALID,99.01,VALID,0.032,VALID,20.584,VALID,129.0,VALID,1.479,
2018-05-26, 02:02:06,VALID,915.6,VALID,0.0,VALID,99.037,VALID,0.01,VALID,20.641,INVALID,360.0,VALID,0.299,
2018-05-26, 02:03:06,VALID,915.564,VALID,0.0,VALID,99.039,VALID,0.002,VALID,20.658,INVALID,360.0,VALID,0.18,
2018-05-26, 02:04:06,VALID,915.551,VALID,0.0,VALID,99.029,VALID,0.014,VALID,20.647,VALID,127.0,VALID,0.953,
2018-05-26, 02:05:06,VALID,915.53,VALID,0.0,VALID,98.991,VALID,0.02,VALID,20.616,VALID,118.0,VALID,1.144,
2018-05-26, 02:06:06,VALID,915.528,VALID,0.0,VALID,98.996,VALID,0.04,VALID,20.595,VALID,121.0,VALID,1.056,
2018-05-26, 02:07:06,VALID,915.509,VALID,0.0,VALID,98.992,VALID,0.028,VALID,20.587,VALID,120.0,VALID,1.077,
2018-05-26, 02:08:06,VALID,915.502,VALID,0.0,VALID,98.993,VALID,0.026,VALID,20.555,VALID,117.0,VALID,0.959,
2018-05-26, 02:09:06,VALID,915.495,VALID,0.0,VALID,98.972,VALID,0.022,VALID,20.504,VALID,126.0,VALID,0.648,
2018-05-26, 02:10:06,VALID,915.5,VALID,0.0,VALID,98.977,VALID,0.027,VALID,20.484,VALID,116.0,VALID,0.898,
2018-05-26, 02:11:06,VALID,915.512,VALID,0.0,VALID,98.985,VALID,0.031,VALID,20.457,VALID,114.0,VALID,1.35,
2018-05-26, 02:12:06,VALID,915.535,VALID,0.0,VALID,98.979,VALID,0.023,VALID,20.43,VALID,108.0,VALID,1.428,
2018-05-26, 02:13:06,VALID,915.531,VALID,0.0,VALID,98.97,VALID,0.001,VALID,20.413,VALID,108.0,VALID,1.264,
2018-05-26, 02:14:06,VALID,915.529,VALID,0.0,VALID,99.0,VALID,0.007,VALID,20.399,VALID,111.0,VALID,1.196,
2018-05-26, 02:15:06,VALID,915.506,VALID,0.0,VALID,99.021,VALID,0.034,VALID,20.402,VALID,124.0,VALID,0.857,
2018-05-26, 02:16:06,VALID,915.493,VALID,0.0,VALID,99.026,VALID,0.035,VALID,20.418,VALID,127.0,VALID,0.42,
2018-05-26, 02:17:06,VALID,915.487,VALID,0.0,VALID,99.034,VALID,0.033,VALID,20.431,VALID,128.0,VALID,0.641,
2018-05-26, 02:18:06,VALID,915.492,VALID,0.0,VALID,99.051,VALID,0.045,VALID,20.435,VALID,125.0,VALID,0.499,
2018-05-26, 02:19:06,VALID,915.503,VALID,0.0,VALID,99.034,VALID,0.045,VALID,20.423,VALID,123.0,VALID,0.493,
2018-05-26, 02:20:06,VALID,915.526,VALID,0.0,VALID,99.02,VALID,0.047,VALID,20.392,VALID,117.0,VALID,0.853,
2018-05-26, 02:21:06,VALID,915.542,VALID,0.0,VALID,99.033,VALID,0.047,VALID,20.386,VALID,108.0,VALID,1.102,
2018-05-26, 02:22:06,VALID,915.54,VALID,0.0,VALID,99.035,VALID,0.052,VALID,20.372,VALID,100.0,VALID,0.911,
2018-05-26, 02:23:06,VALID,915.553,VALID,0.0,VALID,99.031,VALID,0.035,VALID,20.334,VALID,91.0,VALID,0.752,
2018-05-26, 02:24:06,VALID,915.571,VALID,0.0,VALID,99.03,VALID,0.049,VALID,20.294,VALID,92.0,VALID,0.594,
2018-05-26, 02:25:06,VALID,915.567,VALID,0.0,VALID,98.995,VALID,0.05,VALID,20.258,VALID,88.0,VALID,0.908,
2018-05-26, 02:26:06,VALID,915.563,VALID,0.0,VALID,99.031,VALID,0.045,VALID,20.248,VALID,80.0,VALID,0.962,
2018-05-26, 02:27:06,VALID,915.569,VALID,0.0,VALID,99.03,VALID,0.038,VALID,20.245,VALID,80.0,VALID,1.001,
2018-05-26, 02:28:06,VALID,915.582,VALID,0.0,VALID,99.054,VALID,0.033,VALID,20.25,VALID,82.0,VALID,0.899,
2018-05-26, 02:29:06,VALID,915.591,VALID,0.0,VALID,99.046,VALID,0.031,VALID,20.212,VALID,95.0,VALID,0.824,
2018-05-26, 02:30:06,VALID,915.598,VALID,0.0,VALID,99.037,VALID,0.032,VALID,20.208,VALID,97.0,VALID,0.831,
2018-05-26, 02:31:06,VALID,915.605,VALID,0.0,VALID,99.078,VALID,0.016,VALID,20.246,VALID,93.0,VALID,0.637,
2018-05-26, 02:32:06,VALID,915.596,VALID,0.0,VALID,99.068,VALID,0.039,VALID,20.232,VALID,85.0,VALID,0.95,
2018-05-26, 02:33:06,VALID,915.601,VALID,0.0,VALID,99.059,VALID,0.037,VALID,20.198,VALID,67.0,VALID,0.953,
2018-05-26, 02:34:06,VALID,915.592,VALID,0.0,VALID,99.042,VALID,0.035,VALID,20.177,VALID,81.0,VALID,0.762,
2018-05-26, 02:35:06,VALID,915.568,VALID,0.0,VALID,99.111,VALID,0.014,VALID,20.239,VALID,87.0,VALID,0.455,
2018-05-26, 02:36:06,VALID,915.555,VALID,0.0,VALID,99.089,VALID,0.02,VALID,20.245,VALID,85.0,VALID,0.264,
2018-05-26, 02:37:06,VALID,915.555,VALID,0.0,VALID,99.065,VALID,0.032,VALID,20.214,VALID,77.0,VALID,0.442,
2018-05-26, 02:38:06,VALID,915.547,VALID,0.0,VALID,99.033,VALID,0.028,VALID,20.159,VALID,60.0,VALID,0.929,
2018-05-26, 02:39:06,VALID,915.522,VALID,0.0,VALID,99.077,VALID,0.026,VALID,20.137,VALID,55.0,VALID,0.919,
2018-05-26, 02:40:06,VALID,915.484,VALID,0.0,VALID,99.064,VALID,0.038,VALID,20.13,VALID,53.0,VALID,0.931,
2018-05-26, 02:41:06,VALID,915.462,VALID,0.0,VALID,99.071,VALID,0.025,VALID,20.143,VALID,56.0,VALID,0.863,
2018-05-26, 02:42:06,VALID,915.409,VALID,0.0,VALID,99.097,VALID,0.05,VALID,20.155,VALID,58.0,VALID,0.858,
2018-05-26, 02:43:06,VALID,915.38,VALID,0.0,VALID,99.117,VALID,0.016,VALID,20.156,VALID,58.0,VALID,0.962,
2018-05-26, 02:44:06,VALID,915.342,VALID,0.0,VALID,99.104,VALID,0.027,VALID,20.153,VALID,61.0,VALID,0.88,
2018-05-26, 02:45:06,VALID,915.313,VALID,0.0,VALID,99.093,VALID,0.043,VALID,20.142,VALID,66.0,VALID,0.997,
2018-05-26, 02:46:06,VALID,915.289,VALID,0.0,VALID,99.118,VALID,0.041,VALID,20.154,VALID,66.0,VALID,1.074,
2018-05-26, 02:47:06,VALID,915.265,VALID,0.0,VALID,99.111,VALID,0.039,VALID,20.153,VALID,66.0,VALID,1.116,
2018-05-26, 02:48:06,VALID,915.253,VALID,0.0,VALID,99.116,VALID,0.028,VALID,20.157,VALID,64.0,VALID,1.079,
2018-05-26, 02:49:06,VALID,915.218,VALID,0.0,VALID,99.115,VALID,0.013,VALID,20.135,VALID,67.0,VALID,1.037,
2018-05-26, 02:50:06,VALID,915.199,VALID,0.0,VALID,99.088,VALID,0.024,VALID,20.106,VALID,75.0,VALID,1.122,
2018-05-26, 02:51:06,VALID,915.174,VALID,0.0,VALID,99.107,VALID,0.024,VALID,20.104,VALID,72.0,VALID,1.232,
2018-05-26, 02:52:06,VALID,915.149,VALID,0.0,VALID,99.105,VALID,0.014,VALID,20.112,VALID,63.0,VALID,1.163,
2018-05-26, 02:53:06,VALID,915.144,VALID,0.0,VALID,99.102,VALID,0.015,VALID,20.082,VALID,57.0,VALID,1.342,
2018-05-26, 02:54:06,VALID,915.143,VALID,0.0,VALID,99.12,VALID,0.009,VALID,20.095,VALID,58.0,VALID,1.402,
2018-05-26, 02:55:06,VALID,915.125,VALID,0.0,VALID,99.116,VALID,0.016,VALID,20.113,VALID,56.0,VALID,1.27,
2018-05-26, 02:56:06,VALID,915.132,VALID,0.0,VALID,99.158,VALID,0.02,VALID,20.146,VALID,74.0,VALID,1.123,
2018-05-26, 02:57:06,VALID,915.128,VALID,0.0,VALID,99.162,VALID,0.031,VALID,20.181,VALID,80.0,VALID,1.136,
2018-05-26, 02:58:06,VALID,915.118,VALID,0.0,VALID,99.151,VALID,0.012,VALID,20.189,VALID,80.0,VALID,1.066,
2018-05-26, 02:59:06,VALID,915.13,VALID,0.0,VALID,99.129,VALID,0.003,VALID,20.177,VALID,79.0,VALID,1.266,
2018-05-26, 03:00:06,VALID,915.127,VALID,0.0,VALID,99.159,VALID,0.006,VALID,20.2,VALID,76.0,VALID,1.173,
2018-05-26, 03:01:06,VALID,915.141,VALID,0.0,VALID,99.159,VALID,0.019,VALID,20.204,VALID,83.0,VALID,1.385,
2018-05-26, 03:02:06,VALID,915.141,VALID,0.0,VALID,99.155,VALID,0.019,VALID,20.224,VALID,87.0,VALID,1.141,
2018-05-26, 03:03:06,VALID,915.147,VALID,0.0,VALID,99.124,VALID,0.016,VALID,20.164,VALID,91.0,VALID,0.822,
2018-05-26, 03:04:06,VALID,915.137,VALID,0.0,VALID,99.123,VALID,0.01,VALID,20.133,VALID,88.0,VALID,0.763,
2018-05-26, 03:05:06,VALID,915.126,VALID,0.0,VALID,99.146,VALID,-0.001,VALID,20.139,VALID,89.0,VALID,0.794,
2018-05-26, 03:06:06,VALID,915.121,VALID,0.0,VALID,99.158,VALID,-0.0,VALID,20.131,VALID,88.0,VALID,0.855,
2018-05-26, 03:07:06,VALID,915.113,VALID,0.0,VALID,99.145,VALID,-0.007,VALID,20.138,VALID,85.0,VALID,1.057,
2018-05-26, 03:08:06,VALID,915.087,VALID,0.0,VALID,99.168,VALID,-0.017,VALID,20.168,VALID,85.0,VALID,1.037,
2018-05-26, 03:09:06,VALID,915.044,VALID,0.0,VALID,99.145,VALID,-0.007,VALID,20.141,VALID,88.0,VALID,1.078,
2018-05-26, 03:10:06,VALID,915.02,VALID,0.0,VALID,99.121,VALID,0.008,VALID,20.088,VALID,93.0,VALID,1.114,
2018-05-26, 03:11:06,VALID,914.986,VALID,0.0,VALID,99.15,VALID,-0.013,VALID,20.109,VALID,89.0,VALID,1.007,
2018-05-26, 03:12:06,VALID,914.972,VALID,0.0,VALID,99.179,VALID,-0.013,VALID,20.157,VALID,80.0,VALID,1.047,
2018-05-26, 03:13:06,VALID,914.949,VALID,0.0,VALID,99.199,VALID,-0.016,VALID,20.209,VALID,82.0,VALID,1.016,
2018-05-26, 03:14:06,VALID,914.92,VALID,0.0,VALID,99.183,VALID,-0.01,VALID,20.21,VALID,84.0,VALID,0.966,
2018-05-26, 03:15:06,VALID,914.891,VALID,0.0,VALID,99.124,VALID,-0.015,VALID,20.124,VALID,91.0,VALID,0.88,
2018-05-26, 03:16:06,VALID,914.857,VALID,0.0,VALID,99.123,VALID,-0.015,VALID,20.037,VALID,94.0,VALID,0.872,
2018-05-26, 03:17:06,VALID,914.838,VALID,0.0,VALID,99.112,VALID,-0.01,VALID,19.981,VALID,95.0,VALID,0.684,
2018-05-26, 03:18:06,VALID,914.813,VALID,0.0,VALID,99.153,VALID,-0.012,VALID,19.981,VALID,101.0,VALID,0.735,
2018-05-26, 03:19:06,VALID,914.788,VALID,0.0,VALID,99.158,VALID,-0.033,VALID,20.023,VALID,104.0,VALID,0.875,
2018-05-26, 03:20:06,VALID,914.781,VALID,0.0,VALID,99.187,VALID,-0.037,VALID,20.052,VALID,110.0,VALID,1.039,
2018-05-26, 03:21:06,VALID,914.759,VALID,0.0,VALID,99.177,VALID,-0.039,VALID,20.045,VALID,119.0,VALID,0.98,
2018-05-26, 03:22:06,VALID,914.738,VALID,0.0,VALID,99.185,VALID,-0.032,VALID,20.043,VALID,125.0,VALID,0.697,
2018-05-26, 03:23:06,VALID,914.735,VALID,0.0,VALID,99.19,VALID,-0.03,VALID,20.063,VALID,122.0,VALID,0.792,
2018-05-26, 03:24:06,VALID,914.747,VALID,0.0,VALID,99.173,VALID,-0.045,VALID,20.05,VALID,121.0,VALID,0.722,
2018-05-26, 03:25:06,VALID,914.752,VALID,0.0,VALID,99.181,VALID,-0.034,VALID,20.062,VALID,119.0,VALID,0.68,
2018-05-26, 03:26:06,VALID,914.766,VALID,0.0,VALID,99.193,VALID,-0.038,VALID,20.074,VALID,115.0,VALID,0.495,
2018-05-26, 03:27:06,VALID,914.778,VALID,0.0,VALID,99.186,VALID,-0.043,VALID,20.066,INVALID,360.0,VALID,0.095,
2018-05-26, 03:28:06,VALID,914.795,VALID,0.0,VALID,99.095,VALID,-0.048,VALID,19.946,INVALID,360.0,VALID,0.0,
2018-05-26, 03:29:06,VALID,914.818,VALID,0.0,VALID,99.037,VALID,-0.036,VALID,19.786,INVALID,360.0,VALID,0.0,
2018-05-26, 03:30:06,VALID,914.824,VALID,0.0,VALID,99.152,VALID,-0.029,VALID,19.798,INVALID,360.0,VALID,0.0,
2018-05-26, 03:31:06,VALID,914.832,VALID,0.0,VALID,99.21,VALID,-0.037,VALID,19.883,INVALID,360.0,VALID,0.0,
2018-05-26, 03:32:06,VALID,914.832,VALID,0.0,VALID,99.231,VALID,-0.045,VALID,19.968,INVALID,360.0,VALID,0.0,
2018-05-26, 03:33:06,VALID,914.847,VALID,0.0,VALID,99.237,VALID,-0.018,VALID,20.0,INVALID,360.0,VALID,0.0,
2018-05-26, 03:34:06,VALID,914.845,VALID,0.0,VALID,99.23,VALID,0.033,VALID,20.087,INVALID,360.0,VALID,0.0,
2018-05-26, 03:35:06,VALID,914.849,VALID,0.0,VALID,99.236,VALID,0.022,VALID,20.153,INVALID,360.0,VALID,0.0,
2018-05-26, 03:36:06,VALID,914.831,VALID,0.0,VALID,99.215,VALID,0.029,VALID,20.164,INVALID,360.0,VALID,0.0,
2018-05-26, 03:37:06,VALID,914.83,VALID,0.0,VALID,99.212,VALID,0.015,VALID,20.128,INVALID,360.0,VALID,0.0,
2018-05-26, 03:38:06,VALID,914.837,VALID,0.0,VALID,99.184,VALID,0.05,VALID,20.072,VALID,127.0,VALID,0.397,